Torna al catalogo

STARLINK-37641

AttivoComunicazioniVLEO
NORAD 69445·PAYLOAD·🇺🇸 United States

Lanciato Jun 8, 2026 da Cape Canaveral Space Force Station

Loading…

Prossimi Passaggi (prossime 24 ore)

TLE

AggiornatoSource: CelesTrak SupGP

Epoca: Sep 14, 2026, 15:11 UTC

1 69445C 26127C   26257.63312500  .00049917  00000+0  14753-2 0  2576
2 69445  53.1577 192.9427 0001277  93.6525 287.3538 15.34354121    15

Traccia STARLINK-37641 in tempo reale con AllMySat

Download on the App Store